[[{"header":{"parameterUnit":"m.s-1","parameterCategory":1,"la1":30.2991,"la2":30.254,"lo1":-89.0895,"lo2":-89.0444,"dy":0.0017,"dx":0.0017,"nx":28,"ny":28,"refTime":"2024-10-04T09:00:00:Z","depth":0,"parameterNumber":2,"parameterNumberName":"U-component_of_WINDS"},"data":[0,0,0,0,0,0,0,0,0,0,0,0,0,0,0,0,0,0,0,0,0,0,0,0,0,0,0,0,0,0,0,0,0,0,0,0,0,0,0,0,0,0,0,0,0,0,0,0,0,0,0,0,0,0,0,0,0,0,-3.9189,-3.919,0,-3.9252,-3.9253,-3.9253,-3.9174,-3.9171,-3.9169,-3.9166,-3.9228,-3.9232,-3.9236,0,0,0,0,0,0,0,0,0,0,0,0,0,-3.8998,-3.9002,-3.9189,-3.919,-3.9191,-3.9252,-3.9253,-3.9253,-3.9175,-3.9171,-3.9168,-3.9165,-3.9226,-3.9231,-3.9236,0,0,0,0,0,0,0,0,0,0,0,0,0,-3.9073,-3.9003,-3.9189,-3.9159,-3.9157,-3.9252,-3.9253,-3.9254,-3.9176,-3.9171,-3.9167,-3.9163,-3.9224,-3.9231,-3.9237,-3.9364,0,0,-3.9257,-3.926,0,0,0,0,0,0,0,0,-3.9069,-3.908,-3.9163,-3.9161,-3.9159,-3.9201,-3.9208,-3.929,-3.9177,-3.9168,-3.9166,-3.9161,-3.9222,-3.9228,-3.925,-3.9366,-3.9369,-3.9258,-3.9261,-3.9264,-3.9266,0,0,0,0,0,0,0,-3.9064,-3.9077,-3.9214,-3.9164,-3.9162,-3.9141,-3.9147,-3.9223,-3.9219,-3.9169,-3.9163,-3.9172,-3.922,-3.9244,-3.925,-3.937,-3.9257,-3.9263,-3.9267,-3.927,-3.9591,-3.9596,0,0,0,0,0,0,-3.9062,-3.9073,-3.9212,-3.9216,-3.9102,-3.9148,-3.9155,-3.9192,-3.9218,-3.9217,-3.9176,-3.9168,-3.9235,-3.9243,-3.9252,-3.94,-3.9264,-3.927,-3.9274,-3.9587,-3.9592,-3.9597,0,0,0,0,0,0,-3.9059,-3.9076,-3.9209,-3.9143,-3.9158,-3.9156,-3.9198,-3.9195,-3.9218,-3.9223,-3.9221,-3.92,-3.9231,-3.9243,-3.9336,-3.9401,-3.9273,-3.9279,-3.9581,-3.9589,-3.9595,-3.9699,0,0,0,0,0,0,-3.9054,-3.9075,-3.9124,-3.9145,-3.9162,-3.9294,-3.9202,-3.92,-3.923,-3.9221,-3.9246,-3.9245,-3.9229,-3.9327,-3.9343,-3.9408,-3.9284,-3.9575,-3.9585,-3.9593,-3.9689,-3.9708,-3.9725,0,0,0,0,0,-3.9047,-3.915,-3.9127,-3.9144,-3.9224,-3.9297,-3.9307,-3.9287,-3.9236,-3.9284,-3.9287,-3.9245,-3.9392,-3.9337,-3.9354,-3.9423,-3.9571,-3.9582,-3.9592,-3.9682,-3.9705,-3.9724,0,0,0,0,0,0,-3.9136,-3.9152,-3.9126,-3.924,-3.9268,-3.9284,-3.9344,-3.9313,-3.9355,-3.9345,-3.9317,-3.9323,-3.9422,-3.9431,-3.937,-3.9545,-3.9473,-3.9487,-3.9535,-3.9557,-3.9574,-3.9569,-3.929,0,0,0,0,0,-3.917,-3.9229,-3.924,-3.9339,-3.9354,-3.9347,-3.9379,-3.9361,-3.9388,-3.9399,-3.9409,-3.9436,-3.9488,-3.9523,-3.9572,-3.9691,-3.9694,-3.9746,-3.9764,-3.9778,-3.979,-3.9852,-3.9875,-3.9632,-3.9632,-3.9632,0,0,-3.9238,-3.9254,-3.9294,-3.9357,-3.9377,-3.9438,-3.9358,-3.9426,-3.9471,-3.9409,-3.9498,-3.9506,-3.9534,-3.964,-3.9688,-3.9651,-3.9858,-3.9791,-3.9803,-3.9807,-3.9865,-3.9888,-3.9909,-3.9639,-3.9638,-3.9637,0,0,-3.9394,-3.9413,-3.9497,-3.9518,-3.9549,-3.9543,-3.9564,-3.9585,-3.9588,-3.9676,-3.9631,-3.9683,-3.9774,-3.9796,-3.9819,-3.9983,-3.9945,-3.9999,-4.0091,-4.0151,-4.017,-4.0187,-4.0243,-4.0264,-4.0012,-4.0012,-4.0012,0,-3.9475,-3.9566,-3.9544,-3.9615,-3.9643,-3.9592,-3.9675,-3.9697,-3.9742,-3.9762,-3.9721,-3.9833,-3.9849,-3.9959,-3.9999,-4.002,-4.004,-3.9996,-4.0169,-4.0186,-4.0201,-4.0255,-4.0276,-4.0018,-4.0017,-4.0017,-4.0016,0,-3.9663,-3.9727,-3.9791,-3.9836,-3.9872,-3.9949,-3.9937,-3.9975,-3.9954,-3.9953,-4.0042,-4.0059,-4.011,-4.0135,-4.0115,-4.0241,-4.0217,-4.0174,-4.01,-4.0231,-4.0281,-4.0301,-4.0027,-4.0025,-4.0023,-4.0022,0,0,-3.9877,-3.9908,-3.9932,-3.9951,-3.9981,-4.0029,-4.0104,-4.0153,-4.0186,-4.0219,-4.0279,-4.0357,-4.0316,-4.0343,-4.0324,-4.0378,-4.0504,-4.0327,-4.0327,-4.0358,-4.0642,-4.0674,-4.0698,-4.048,-4.0483,-4.0487,-4.0639,0,-4.0032,-4.0161,-4.0142,-4.0266,-4.0324,-4.0275,-4.0339,-4.0364,-4.0364,-4.0412,-4.0412,-4.0467,-4.041,-4.0426,-4.0476,-4.0478,-4.056,-4.0467,-4.0534,-4.0536,-4.0527,-4.0725,-4.0759,-4.0902,-4.0659,-4.0662,-4.0664,0,-4.023,-4.027,-4.04,-4.0419,-4.0442,-4.0501,-4.0544,-4.0591,-4.0617,-4.0614,-4.0643,-4.0615,-4.0687,-4.0614,-4.0712,-4.0649,-4.0675,-4.068,-4.0685,-4.069,-4.0607,-4.0733,-4.0947,-4.0968,-4.0695,-4.0693,-4.0691,0,-4.0371,-4.0457,-4.0545,-4.0563,-4.0589,-4.0631,-4.0643,-4.0665,-4.0696,-4.0733,-4.0752,-4.0798,-4.0823,-4.0858,-4.0842,-4.0791,-4.0943,-4.0869,-4.0941,-4.0941,-4.0974,-4.0972,-4.1195,-4.0994,-4.0994,-4.0993,-4.0993,0,-4.0545,-4.0626,-4.0609,-4.0663,-4.0752,-4.0729,-4.0817,-4.0823,-4.0843,-4.0896,-4.0857,-4.0908,-4.0884,-4.0933,-4.0921,-4.1004,-4.1016,-4.1014,-4.1009,-4.1016,-4.1017,-4.1032,-4.1021,-4.0999,-4.0998,-4.0997,-4.0996,0,-4.0717,-4.0709,-4.0802,-4.0818,-4.0824,-4.0889,-4.0902,-4.0952,-4.0949,-4.1017,-4.1032,-4.1027,-4.1082,-4.107,-4.1131,-4.1123,-4.1226,-4.121,-4.1218,-4.1213,-4.1285,-4.1278,-4.1525,-4.1555,-4.1336,-4.1338,-4.134,0,-4.0828,-4.0889,-4.0912,-4.0945,-4.0961,-4.1015,-4.1046,-4.1025,-4.1059,-4.1093,-4.1138,-4.119,-4.123,-4.1321,-4.1322,-4.1368,-4.1352,-4.1435,-4.1358,-4.1363,-4.1351,-4.1347,-4.1352,-4.145,-4.1452,-4.1454,-4.1456,0,-4.1026,-4.1018,-4.1065,-4.111,-4.1148,-4.1182,-4.1213,-4.1242,-4.1224,-4.1263,-4.1319,-4.1351,-4.1413,-4.1464,-4.1506,-4.1517,-4.1484,-4.148,-4.1499,-4.1506,-4.1508,-4.1506,-4.1257,-4.1474,-4.1473,-4.1471,-4.147,-4.147,-4.1169,-4.1221,-4.1244,-4.1297,-4.1318,-4.1347,-4.1394,-4.1397,-4.1444,-4.1493,-4.1478,-4.1541,-4.1564,-4.1617,-4.1634,-4.1682,-4.1651,-4.1679,-4.1685,-4.1692,-4.17,-4.1501,-4.169,-4.169,-4.1689,-4.1689,-4.1688,0,-4.1363,-4.1376,-4.1425,-4.1468,-4.1509,-4.1475,-4.1506,-4.1542,-4.1599,-4.1624,-4.1664,-4.1728,-4.1777,-4.1783,-4.1829,-4.1867,-4.1852,-4.1879,-4.1876,-4.1879,-4.1727,-4.1705,-4.189,-4.189,-4.189,-4.189,-4.189,-4.189,-4.1469,-4.1553,-4.1549,-4.1642,-4.1654,-4.1716,-4.1737,-4.1763,-4.1782,-4.1856,-4.1897,-4.19,-4.1916,-4.1963,-4.2006,-4.2006,-4.2025,-4.2058,-4.2052,-4.191,-4.1889,-4.187,-4.185,-4.2062,-4.2062,-4.2199,-4.2201,-4.2201]},{"header":{"parameterUnit":"m.s-1","parameterCategory":1,"la1":30.2991,"la2":30.254,"lo1":-89.0895,"lo2":-89.0444,"dy":0.0017,"dx":0.0017,"nx":28,"ny":28,"refTime":"2024-10-04T09:00:00:Z","depth":0,"parameterNumber":3,"parameterNumberName":"V-component_of_WINDS"},"data":[0,0,0,0,0,0,0,0,0,0,0,0,0,0,0,0,0,0,0,0,0,0,0,0,0,0,0,0,0,0,0,0,0,0,0,0,0,0,0,0,0,0,0,0,0,0,0,0,0,0,0,0,0,0,0,0,0,0,1.9067,1.9067,0,1.9152,1.9153,1.9154,1.9189,1.9189,1.9189,1.9189,1.927,1.9272,1.9274,0,0,0,0,0,0,0,0,0,0,0,0,0,1.8927,1.8929,1.9066,1.9068,1.9069,1.9152,1.9153,1.9154,1.9189,1.9189,1.9189,1.9189,1.9269,1.9272,1.9274,0,0,0,0,0,0,0,0,0,0,0,0,0,1.8997,1.893,1.9066,1.9096,1.91,1.9152,1.9153,1.9154,1.9189,1.9189,1.9189,1.9188,1.9268,1.9271,1.9275,1.9301,0,0,1.9285,1.9287,0,0,0,0,0,0,0,0,1.8993,1.9002,1.9091,1.9094,1.9098,1.916,1.9133,1.9203,1.9189,1.9155,1.9189,1.9188,1.9233,1.9239,1.9256,1.9305,1.9308,1.9286,1.9288,1.9289,1.929,0,0,0,0,0,0,0,1.8988,1.8999,1.91,1.9092,1.9097,1.9103,1.9113,1.9147,1.9194,1.9158,1.9161,1.9171,1.9235,1.9252,1.9258,1.9309,1.9286,1.9289,1.9291,1.9292,1.9383,1.9383,0,0,0,0,0,0,1.8979,1.8994,1.9097,1.9103,1.9044,1.9106,1.9117,1.914,1.9194,1.9202,1.9171,1.9172,1.9246,1.9254,1.9261,1.9294,1.9289,1.9293,1.9294,1.9382,1.9383,1.9383,0,0,0,0,0,0,1.8976,1.8988,1.9094,1.9049,1.9063,1.9109,1.9135,1.9142,1.916,1.9204,1.9212,1.918,1.9246,1.9256,1.9291,1.9298,1.9294,1.9297,1.9382,1.9382,1.9383,1.9362,0,0,0,0,0,0,1.8972,1.8987,1.8999,1.9049,1.9066,1.9125,1.9135,1.9144,1.9166,1.9168,1.9215,1.9222,1.9247,1.9285,1.9294,1.9302,1.93,1.9381,1.9382,1.9383,1.9362,1.9362,1.9361,0,0,0,0,0,1.8967,1.8989,1.9,1.9012,1.9082,1.9125,1.9134,1.9164,1.9167,1.9178,1.9206,1.9221,1.9295,1.9289,1.9299,1.9308,1.9381,1.9382,1.9383,1.9363,1.9362,1.9361,0,0,0,0,0,0,1.8936,1.8996,1.9009,1.9048,1.9081,1.9131,1.9147,1.9163,1.9195,1.9195,1.9229,1.9239,1.9271,1.9293,1.9285,1.9335,1.9339,1.9342,1.932,1.932,1.932,1.9314,1.9303,0,0,0,0,0,1.8934,1.8966,1.9016,1.9046,1.9062,1.9101,1.9121,1.9141,1.9177,1.919,1.9221,1.9253,1.9283,1.9303,1.9333,1.9365,1.9375,1.9376,1.9376,1.9375,1.9377,1.9394,1.9395,1.9385,1.9385,1.9385,0,0,1.893,1.8967,1.8985,1.904,1.9069,1.9099,1.9113,1.9145,1.9167,1.9194,1.923,1.9253,1.9291,1.9324,1.934,1.9343,1.9382,1.9376,1.9375,1.9378,1.9395,1.9396,1.9397,1.9386,1.9386,1.9386,0,0,1.8938,1.897,1.8998,1.9026,1.9069,1.9095,1.9102,1.9149,1.9166,1.9203,1.9224,1.9249,1.9301,1.9327,1.9347,1.9363,1.9376,1.9371,1.9369,1.9385,1.9386,1.9386,1.9391,1.9393,1.9373,1.9373,1.9373,0,1.8927,1.8976,1.9009,1.904,1.9063,1.9091,1.9118,1.9143,1.9193,1.9207,1.921,1.9276,1.9303,1.9342,1.9346,1.9362,1.9368,1.9367,1.9383,1.9384,1.9386,1.9391,1.9393,1.9372,1.9372,1.9372,1.9372,0,1.896,1.8993,1.901,1.906,1.9084,1.9113,1.9148,1.9169,1.9186,1.9211,1.9246,1.928,1.9317,1.9328,1.9344,1.9369,1.9369,1.9377,1.9382,1.9385,1.939,1.9393,1.9371,1.9371,1.9371,1.9372,0,0,1.8952,1.902,1.9025,1.9048,1.9097,1.9122,1.915,1.9189,1.9205,1.9238,1.9262,1.9305,1.9312,1.9335,1.9354,1.9368,1.9378,1.9375,1.9376,1.9374,1.9405,1.9399,1.9401,1.9387,1.9388,1.9388,1.9402,0,1.8967,1.9022,1.9052,1.9094,1.9124,1.915,1.9175,1.9206,1.9229,1.9256,1.9281,1.9311,1.9319,1.9332,1.9347,1.9373,1.9384,1.9373,1.9408,1.9409,1.9398,1.9404,1.9398,1.941,1.9404,1.9405,1.9405,0,1.8992,1.9026,1.9072,1.9116,1.913,1.9152,1.9189,1.9215,1.925,1.9266,1.929,1.9309,1.9338,1.934,1.9378,1.937,1.9385,1.94,1.9401,1.9406,1.9407,1.9408,1.9414,1.9416,1.9409,1.9408,1.9408,0,1.8981,1.9038,1.9073,1.9091,1.9144,1.9159,1.9181,1.9216,1.9237,1.9268,1.9282,1.9315,1.9333,1.9357,1.9384,1.9383,1.942,1.9424,1.9432,1.9431,1.9439,1.9438,1.9447,1.9449,1.9449,1.9449,1.9449,0,1.8995,1.9021,1.9069,1.909,1.912,1.9152,1.918,1.9204,1.9235,1.9259,1.9282,1.9304,1.9338,1.9364,1.9384,1.9413,1.942,1.9432,1.9438,1.9431,1.9429,1.9442,1.9442,1.9449,1.9449,1.9449,1.9449,0,1.8988,1.9022,1.9061,1.9108,1.912,1.914,1.9179,1.9199,1.9223,1.9254,1.9262,1.9299,1.933,1.9359,1.94,1.9414,1.9442,1.9449,1.9431,1.9434,1.9441,1.9439,1.9458,1.9462,1.946,1.946,1.946,0,1.8995,1.9016,1.9066,1.9085,1.9107,1.9138,1.9159,1.9191,1.9212,1.9253,1.9268,1.9301,1.9329,1.9377,1.9406,1.9436,1.9444,1.9448,1.9449,1.9441,1.9444,1.9442,1.9444,1.9448,1.9448,1.9447,1.9447,0,1.9003,1.9018,1.905,1.9087,1.9112,1.9142,1.9173,1.9186,1.9223,1.9245,1.9279,1.93,1.9343,1.9374,1.9408,1.9429,1.9443,1.9447,1.945,1.9444,1.9433,1.9438,1.943,1.9446,1.9447,1.9447,1.9447,1.9447,1.9003,1.9023,1.9061,1.9095,1.9121,1.9149,1.9171,1.9197,1.9226,1.9265,1.9281,1.9314,1.9346,1.9394,1.9413,1.9438,1.9441,1.9446,1.9448,1.9449,1.9447,1.9428,1.9444,1.9444,1.9444,1.9444,1.9444,0,1.9012,1.9038,1.9069,1.9111,1.9137,1.9151,1.9185,1.9205,1.9235,1.9265,1.9292,1.9329,1.936,1.9391,1.9423,1.9436,1.9444,1.9444,1.9443,1.9447,1.9442,1.9436,1.9437,1.9437,1.9437,1.9437,1.9437,1.9437,1.902,1.9054,1.9073,1.912,1.9145,1.9179,1.9197,1.9222,1.9246,1.9287,1.9314,1.9334,1.9364,1.9398,1.9426,1.9434,1.9444,1.9442,1.9452,1.9447,1.9448,1.9448,1.9442,1.9444,1.9444,1.9455,1.9455,1.9455]}]]